This is the latest recevied weather packets stored in our database for station/object IU0KRR-10. If no packets are shown the sender has not sent any weather packets the latest 10 day(s).
| Time | Temp. | Humidity | Pressure | Rain* | Wind** | Luminosity | Snow |
|---|---|---|---|---|---|---|---|
| 1787641010 | 18.89° C | 84% | 871 hPa | - | - | - | - |
| 1787640110 | 18.33° C | 87% | 870.8 hPa | - | - | - | - |
| 1787639209 | 17.78° C | 98% | 870.8 hPa | - | - | - | - |
| 1787638309 | 17.22° C | 96% | 870.8 hPa | - | - | - | - |
| 1787637408 | 16.67° C | 92% | 870.5 hPa | - | - | - | - |
| 1787636559 | 16.67° C | 94% | 870.5 hPa | - | - | - | - |
| 1787636507 | 16.67° C | 94% | 870.5 hPa | - | - | - | - |
| 1787635607 | 16.67° C | 91% | 870.6 hPa | - | - | - | - |
| 1787634741 | 16.67° C | 87% | 870.7 hPa | - | - | - | - |
| 1787634705 | 16.67° C | 87% | 870.7 hPa | - | - | - | - |
| 1787633804 | 16.67° C | 88% | 870.9 hPa | - | - | - | - |
| 1787632966 | 16.67° C | 90% | 870.9 hPa | - | - | - | - |
| 1787632904 | 16.67° C | 90% | 870.9 hPa | - | - | - | - |
| 1787632038 | 16.67° C | 87% | 871.3 hPa | - | - | - | - |
| 1787632003 | 16.67° C | 87% | 871.3 hPa | - | - | - | - |
| 1787631142 | 16.67° C | 82% | 871.6 hPa | - | - | - | - |
| 1787631103 | 16.67° C | 82% | 871.6 hPa | - | - | - | - |
| 1787630202 | 16.67° C | 78% | 871.7 hPa | - | - | - | - |
| 1787629302 | 16.67° C | 75% | 871.6 hPa | - | - | - | - |
| 1787628401 | 16.11° C | 79% | 872.1 hPa | - | - | - | - |
| 1787627500 | 16.11° C | 86% | 872.5 hPa | - | - | - | - |
| 1787626599 | 16.11° C | 86% | 873.5 hPa | - | - | - | - |
| 1787625767 | 15° C | 91% | 875.2 hPa | - | - | - | - |
| 1787625698 | 15° C | 91% | 875.2 hPa | - | - | - | - |
| 1787624839 | 16.11° C | 91% | 875.1 hPa | - | - | - | - |
* Rain since midnight (hover to see other rain measurements)
** Current wind speed in m/s (hover to see current wind gust speed)